Total_Precipitation_Accumulation
1.33 1.50 1.79 2.22 2.67 3.16 3.27 3.28 3.39 3.58 3.72 3.84 3.85 3.73 3.42 3.26 3.11 2.89 2.74 2.64 2.52 2.53 2.62 2.35 2.10 2.03 1.96 1.91 1.86 1.83 1.76 1.56 1.51 1.49 1.22 0.93 0.78 0.73 0.65 0.60 0.58 0.53 0.49
1.31 1.46 1.69 1.98 2.24 2.71 3.06 3.11 3.19 3.28 3.36 3.41 3.61 3.73 3.62 3.35 3.24 3.16 2.97 2.78 2.66 2.59 2.63 2.69 2.50 2.22 2.14 2.13 2.11 2.02 1.89 1.82 1.77 1.70 1.61 1.40 1.18 0.89 0.73 0.69 0.66 0.62 0.59
1.26 1.39 1.55 1.87 2.07 2.42 2.84 2.99 3.11 3.24 3.21 3.37 3.81 4.03 4.05 3.74 3.43 3.24 3.16 3.00 2.80 2.72 2.64 2.59 2.63 2.52 2.36 2.25 2.26 2.31 2.28 2.15 2.04 1.93 1.97 1.71 1.40 1.12 0.90 0.81 0.78 0.78 0.76
1.14 1.25 1.35 1.68 1.93 2.15 2.49 2.72 3.00 3.25 3.37 3.45 3.65 3.71 3.55 3.36 3.05 2.95 2.96 3.01 2.99 2.80 2.69 2.68 2.67 2.63 2.54 2.39 2.35 2.43 2.48 2.49 2.40 2.25 2.07 1.84 1.54 1.41 1.18 0.94 0.90 0.96 0.98
1.09 1.26 1.36 1.49 1.65 1.96 2.25 2.43 2.62 2.90 3.17 3.32 3.47 3.61 3.44 3.17 3.05 3.03 3.00 2.96 2.99 2.91 2.80 2.70 2.72 2.73 2.65 2.57 2.52 2.50 2.53 2.54 2.51 2.45 2.28 2.11 1.80 1.54 1.44 1.22 1.06 1.09 1.07
1.09 1.22 1.29 1.40 1.50 1.74 2.08 2.25 2.40 2.56 2.85 3.06 3.24 3.44 3.34 3.09 2.84 2.82 2.87 2.80 2.79 2.75 2.69 2.70 2.64 2.63 2.62 2.53 2.49 2.49 2.48 2.49 2.43 2.34 2.22 2.15 2.00 1.76 1.67 1.51 1.28 1.27 1.23
1.02 1.13 1.23 1.40 1.50 1.65 1.81 1.94 2.02 2.14 2.39 2.66 2.83 3.02 3.12 3.09 2.87 2.61 2.62 2.60 2.52 2.45 2.40 2.45 2.48 2.50 2.49 2.50 2.48 2.44 2.34 2.35 2.38 2.28 2.14 2.01 1.81 1.68 1.76 1.76 1.57 1.40 1.27
0.99 1.04 1.12 1.29 1.45 1.59 1.62 1.65 1.72 1.84 1.95 2.09 2.27 2.44 2.52 2.70 2.76 2.62 2.46 2.42 2.34 2.26 2.25 2.29 2.33 2.38 2.44 2.44 2.48 2.45 2.32 2.25 2.21 2.19 2.13 2.07 1.89 1.73 1.68 1.72 1.81 1.77 1.52
0.91 0.99 1.10 1.21 1.31 1.44 1.49 1.51 1.58 1.65 1.68 1.79 1.91 2.12 2.15 2.18 2.29 2.34 2.35 2.32 2.22 2.15 2.18 2.29 2.28 2.23 2.23 2.22 2.26 2.29 2.19 2.09 2.04 1.97 2.00 2.00 1.91 1.85 1.75 1.73 1.85 2.13 2.09
0.90 1.01 1.15 1.24 1.29 1.39 1.45 1.42 1.46 1.53 1.59 1.63 1.75 1.89 1.96 2.02 2.05 2.04 2.04 2.09 2.06 1.97 1.98 2.06 2.16 2.15 2.11 2.12 2.14 2.06 1.97 1.92 1.81 1.71 1.75 1.80 1.81 1.87 1.88 1.87 1.90 2.03 2.23
0.90 1.04 1.16 1.28 1.32 1.34 1.38 1.40 1.35 1.38 1.45 1.50 1.55 1.65 1.72 1.80 1.90 1.89 1.84 1.84 1.86 1.82 1.78 1.84 1.89 1.90 1.87 1.88 1.94 1.90 1.85 1.83 1.78 1.68 1.60 1.55 1.60 1.75 1.83 1.91 1.95 1.98 2.09
0.86 0.99 1.07 1.10 1.17 1.26 1.36 1.43 1.35 1.35 1.32 1.40 1.47 1.49 1.54 1.59 1.69 1.72 1.73 1.70 1.71 1.72 1.69 1.72 1.78 1.78 1.75 1.73 1.74 1.72 1.69 1.72 1.72 1.72 1.70 1.60 1.58 1.70 1.80 1.91 1.94 1.90 1.85
0.83 0.88 0.98 0.99 1.02 1.12 1.27 1.42 1.39 1.37 1.30 1.27 1.39 1.48 1.47 1.42 1.50 1.56 1.53 1.54 1.57 1.65 1.68 1.63 1.66 1.67 1.69 1.72 1.71 1.68 1.66 1.61 1.61 1.69 1.75 1.71 1.72 1.75 1.73 1.73 1.73 1.68 1.60
0.84 0.87 0.91 0.92 0.93 1.01 1.07 1.22 1.26 1.26 1.29 1.32 1.31 1.37 1.42 1.39 1.35 1.42 1.41 1.40 1.44 1.51 1.58 1.56 1.53 1.57 1.62 1.67 1.70 1.75 1.79 1.76 1.70 1.70 1.74 1.74 1.75 1.71 1.70 1.68 1.61 1.55 1.55
0.74 0.81 0.87 0.86 0.85 0.91 0.93 1.02 1.13 1.20 1.27 1.33 1.34 1.31 1.35 1.36 1.37 1.38 1.39 1.38 1.42 1.44 1.48 1.52 1.49 1.51 1.60 1.70 1.74 1.73 1.80 1.88 1.87 1.79 1.72 1.67 1.76 1.75 1.70 1.67 1.64 1.66 1.72
0.72 0.75 0.79 0.79 0.80 0.87 0.93 0.95 1.02 1.17 1.20 1.26 1.33 1.28 1.23 1.25 1.36 1.45 1.45 1.44 1.43 1.46 1.49 1.55 1.59 1.58 1.62 1.93 2.00 1.90 1.84 1.86 1.83 1.76 1.65 1.58 1.66 1.63 1.67 1.69 1.69 1.77 1.86
0.65 0.69 0.74 0.78 0.83 0.87 0.90 0.93 0.97 1.10 1.16 1.21 1.27 1.28 1.26 1.27 1.30 1.40 1.52 1.57 1.55 1.55 1.62 1.69 1.73 1.75 1.82 1.96 1.86 1.85 1.71 1.66 1.63 1.54 1.46 1.39 1.35 1.40 1.26 1.39 1.53 1.56 1.68
0.60 0.62 0.67 0.72 0.75 0.78 0.83 0.89 0.92 0.98 1.04 1.10 1.20 1.22 1.24 1.34 1.41 1.44 1.49 1.57 1.61 1.66 1.75 1.84 1.84 1.80 1.81 1.80 1.61 1.60 1.48 1.39 1.32 1.27 1.23 1.20 1.16 1.17 1.23 1.26 1.35 1.27 1.21
0.62 0.65 0.67 0.72 0.72 0.71 0.78 0.86 0.92 0.97 1.01 1.06 1.17 1.24 1.25 1.31 1.40 1.53 1.55 1.57 1.62 1.67 1.69 1.70 1.66 1.55 1.49 1.50 1.35 1.29 1.19 1.21 1.17 1.08 1.06 1.09 1.04 1.22 1.43 1.44 1.40 1.22 1.09
0.52 0.61 0.64 0.67 0.69 0.71 0.77 0.87 0.94 1.03 1.14 1.19 1.26 1.34 1.38 1.42 1.41 1.46 1.53 1.52 1.46 1.41 1.32 1.24 1.19 1.12 1.05 1.12 1.16 1.17 1.04 1.03 1.03 1.01 1.01 1.14 1.14 1.33 1.50 1.44 1.44 1.32 1.10
0.47 0.56 0.63 0.70 0.74 0.79 0.85 0.97 1.05 1.18 1.28 1.33 1.33 1.40 1.41 1.42 1.40 1.31 1.23 1.19 1.13 1.06 1.03 0.97 0.91 0.87 0.88 0.91 0.95 1.09 1.11 1.07 1.01 0.98 0.96 0.98 1.20 1.35 1.45 1.43 1.31 1.35 1.38
0.47 0.57 0.66 0.71 0.76 0.84 0.91 0.97 1.08 1.15 1.16 1.23 1.23 1.23 1.13 1.02 0.99 1.01 0.98 0.99 0.99 0.94 0.91 0.92 0.92 0.86 0.86 0.91 0.93 1.03 1.13 1.20 1.13 1.00 0.87 0.92 1.18 1.28 1.34 1.29 1.31 1.46 1.45
0.43 0.49 0.57 0.60 0.62 0.69 0.79 0.89 0.91 0.89 0.89 0.91 0.92 0.94 0.89 0.81 0.79 0.84 0.90 0.93 0.96 0.97 0.93 0.91 0.93 0.91 0.84 0.88 1.00 1.05 1.13 1.19 1.15 1.03 1.03 1.05 1.11 1.10 1.12 1.21 1.26 1.25 1.18
0.42 0.46 0.48 0.51 0.54 0.58 0.67 0.78 0.79 0.76 0.78 0.80 0.81 0.85 0.87 0.83 0.81 0.81 0.86 0.93 0.97 0.99 0.98 0.97 0.95 0.91 0.87 0.87 0.90 1.01 1.13 1.19 1.20 1.22 1.21 1.16 1.10 1.06 1.04 1.09 1.07 1.05 1.10
0.46 0.50 0.54 0.56 0.58 0.58 0.61 0.66 0.72 0.75 0.80 0.78 0.78 0.82 0.86 0.88 0.86 0.87 0.93 0.98 1.00 1.10 1.20 1.14 1.07 1.06 1.01 0.96 1.12 1.19 1.19 1.23 1.32 1.39 1.29 1.20 1.12 1.11 1.07 1.03 1.00 1.03 1.13
0.48 0.51 0.55 0.60 0.63 0.63 0.66 0.68 0.73 0.79 0.86 0.87 0.86 0.88 0.93 0.93 0.94 0.95 0.98 1.07 1.09 1.15 1.20 1.19 1.16 1.08 1.05 1.09 1.17 1.21 1.23 1.31 1.42 1.46 1.32 1.15 1.04 0.99 0.97 0.99 0.99 0.99 1.05